[[{"header":{"parameterUnit":"m.s-1","parameterCategory":1,"la1":30.2992,"la2":30.254,"lo1":-89.0895,"lo2":-89.0443,"dy":0.0025,"dx":0.0025,"nx":19,"ny":19,"refTime":"2026-04-10T09:00:00:Z","depth":0,"parameterNumber":2,"parameterNumberName":"U-component_of_WINDS"},"data":[0,0,0,-2.8324,-2.8324,-2.8332,-2.8332,-2.835,-2.835,0,0,0,0,0,0,0,0,0,0,0,-2.8328,-2.8328,-2.8324,-2.8324,-2.8332,-2.8332,-2.835,-2.835,0,0,0,0,0,0,0,0,0,0,0,-2.8327,-2.8328,-2.8328,-2.8325,-2.8332,-2.8332,-2.835,-2.8341,0,0,0,0,0,0,0,0,0,0,-2.8333,-2.8341,-2.8328,-2.8328,-2.8325,-2.8332,-2.8332,-2.8341,-2.8342,-2.8351,0,-2.8361,0,-2.8356,-2.8352,-2.8352,0,0,0,-2.832,-2.834,-2.8337,-2.8328,-2.8325,-2.8332,-2.8327,-2.8341,-2.8342,-2.8353,-2.8361,-2.8361,-2.8356,-2.8352,-2.8353,-2.8423,-2.8424,0,0,-2.832,-2.8331,-2.8337,-2.8339,-2.8338,-2.8327,-2.8327,-2.8342,-2.8351,-2.8361,-2.8361,-2.8357,-2.8353,-2.8353,-2.8422,-2.8423,0,0,0,-2.8321,-2.8331,-2.8328,-2.8338,-2.8339,-2.8327,-2.8328,-2.8351,-2.8349,-2.8362,-2.8357,-2.8353,-2.8353,-2.8422,-2.8423,-2.8461,0,0,0,-2.8321,-2.8332,-2.8328,-2.8335,-2.8339,-2.8345,-2.8336,-2.8348,-2.8349,-2.8357,-2.8353,-2.8353,-2.8421,-2.8422,-2.8459,-2.8476,0,0,0,-2.8325,-2.8333,-2.8336,-2.8336,-2.834,-2.8344,-2.8343,-2.8348,-2.8346,-2.8352,-2.8353,-2.8421,-2.8422,-2.8456,-2.8473,-2.8499,0,0,0,-2.8332,-2.8368,-2.8337,-2.8375,-2.834,-2.8369,-2.8343,-2.8363,-2.8373,-2.8353,-2.8421,-2.8423,-2.8456,-2.847,-2.8497,-2.8522,-2.8534,0,0,-2.8384,-2.8375,-2.8396,-2.8369,-2.8406,-2.8366,-2.841,-2.8407,-2.8396,-2.8415,-2.8416,-2.8459,-2.8472,-2.8498,-2.8599,-2.8609,0,0,0,-2.8417,-2.8432,-2.844,-2.8451,-2.8451,-2.8453,-2.8443,-2.8443,-2.8459,-2.8408,-2.8476,-2.8483,-2.8498,-2.851,-2.8518,-2.853,-2.8429,-2.8429,-2.8429,-2.8503,-2.8491,-2.8526,-2.8515,-2.8527,-2.8518,-2.8526,-2.8524,-2.8505,-2.8523,-2.8527,-2.859,-2.8604,-2.861,-2.8623,-2.854,-2.8541,-2.8541,-2.8541,-2.8577,-2.8597,-2.8576,-2.8603,-2.859,-2.8612,-2.8607,-2.8594,-2.8613,-2.8584,-2.8597,-2.8565,-2.8621,-2.8632,-2.8544,-2.8543,-2.8543,-2.8543,-2.8542,-2.8631,-2.8639,-2.864,-2.8657,-2.8672,-2.866,-2.8681,-2.8668,-2.8656,-2.8668,-2.8672,-2.8672,-2.8669,-2.8672,-2.8672,-2.8672,-2.8672,-2.8672,-2.8672,-2.8687,-2.8687,-2.8706,-2.8713,-2.872,-2.8728,-2.8724,-2.873,-2.8734,-2.8723,-2.8723,-2.8704,-2.863,-2.8611,-2.8676,-2.8675,-2.8675,-2.8674,-2.8674,-2.8763,-2.8745,-2.8775,-2.8782,-2.8791,-2.8808,-2.8793,-2.8809,-2.8813,-2.8824,-2.8804,-2.8752,-2.874,-2.8734,-2.8718,-2.8807,-2.8807,-2.8807,-2.8807,-2.8809,-2.8803,-2.8832,-2.8846,-2.8858,-2.8849,-2.8885,-2.8883,-2.8878,-2.888,-2.8866,-2.8845,-2.8839,-2.8831,-2.8822,-2.8807,-2.8917,-2.8917,-2.8917,-2.8855,-2.8851,-2.8883,-2.888,-2.8887,-2.8894,-2.8928,-2.8945,-2.8935,-2.8921,-2.8882,-2.8877,-2.8843,-2.8832,-2.8813,-2.88,-2.8772,0,0]},{"header":{"parameterUnit":"m.s-1","parameterCategory":1,"la1":30.2992,"la2":30.254,"lo1":-89.0895,"lo2":-89.0443,"dy":0.0025,"dx":0.0025,"nx":19,"ny":19,"refTime":"2026-04-10T09:00:00:Z","depth":0,"parameterNumber":3,"parameterNumberName":"V-component_of_WINDS"},"data":[0,0,0,3.4173,3.4173,3.4187,3.4187,3.4188,3.4188,0,0,0,0,0,0,0,0,0,0,0,3.416,3.416,3.4173,3.4173,3.4187,3.4187,3.4188,3.4188,0,0,0,0,0,0,0,0,0,0,0,3.416,3.416,3.4159,3.4173,3.4187,3.4187,3.4188,3.4183,0,0,0,0,0,0,0,0,0,0,3.4172,3.4152,3.416,3.4159,3.4173,3.4187,3.4187,3.4183,3.4183,3.4175,0,3.4166,0,3.4177,3.4187,3.4187,0,0,0,3.4179,3.4151,3.4164,3.4159,3.4173,3.4187,3.4183,3.4184,3.4184,3.4175,3.4166,3.4167,3.4177,3.4187,3.4187,3.4122,3.4121,0,0,3.4178,3.4157,3.4163,3.4163,3.4162,3.4182,3.4183,3.4184,3.4172,3.4166,3.4167,3.4177,3.4187,3.4187,3.4123,3.4122,0,0,0,3.4172,3.4156,3.4169,3.4163,3.4167,3.4182,3.4183,3.4172,3.4178,3.4167,3.4177,3.4187,3.4187,3.4123,3.4122,3.4073,0,0,0,3.4172,3.4152,3.4168,3.4155,3.4167,3.417,3.4171,3.4178,3.4179,3.4177,3.4187,3.4187,3.4124,3.4123,3.4076,3.4053,0,0,0,3.4162,3.4151,3.4151,3.4154,3.416,3.4171,3.4177,3.4179,3.4185,3.4187,3.4186,3.4124,3.4123,3.4079,3.4057,3.403,0,0,0,3.4144,3.4105,3.4149,3.411,3.4159,3.4141,3.4177,3.4164,3.416,3.4187,3.4124,3.4122,3.4079,3.406,3.4032,3.4003,3.3989,0,0,3.4083,3.4097,3.4075,3.4116,3.4085,3.4141,3.4102,3.4117,3.4136,3.4125,3.4124,3.4075,3.4057,3.403,3.3919,3.3907,0,0,0,3.4048,3.4033,3.4029,3.4026,3.4039,3.4048,3.4072,3.4078,3.4071,3.4127,3.4059,3.4049,3.4034,3.4021,3.4011,3.4,3.4116,3.4116,3.4116,3.3928,3.3958,3.3924,3.3955,3.3951,3.3978,3.3977,3.399,3.4017,3.4001,3.3998,3.3927,3.391,3.3903,3.3891,3.3985,3.3985,3.3985,3.3985,3.384,3.3822,3.3864,3.3846,3.3876,3.3861,3.3886,3.3907,3.3896,3.3931,3.3919,3.3955,3.389,3.3881,3.3981,3.3982,3.3982,3.3983,3.3983,3.3764,3.3761,3.3771,3.3771,3.3768,3.38,3.3789,3.3816,3.3842,3.383,3.383,3.383,3.3834,3.3828,3.3828,3.3828,3.3828,3.3828,3.3827,3.368,3.3694,3.3682,3.3695,3.3698,3.3704,3.3733,3.3736,3.3745,3.3766,3.3766,3.3795,3.3879,3.3899,3.3824,3.3824,3.3825,3.3825,3.3825,3.3578,3.3607,3.3588,3.3591,3.3609,3.3604,3.3641,3.3645,3.3651,3.3644,3.3677,3.3735,3.3751,3.3758,3.3775,3.3672,3.3672,3.3672,3.3672,3.3513,3.3525,3.3514,3.3517,3.3523,3.3556,3.3533,3.3555,3.3582,3.3588,3.3607,3.3632,3.3639,3.365,3.366,3.3676,3.355,3.355,3.355,3.3452,3.3466,3.3442,3.3472,3.3489,3.3502,3.3482,3.3482,3.3518,3.3545,3.3592,3.3598,3.3638,3.365,3.3675,3.3691,3.372,0,0]}]]